iso_date,epoch_date,Year,Hour,Min,DOY,POS_DOY,Lat,Lon,BP,Ts,Ta,has_bp,has_ts,has_ta,BuoyID,Buoy_Type,Buoy_Owner,Logistics,Hemisphere
2014-09-07T16:00:28Z,1410105629,2014,16,0,250.667,250.625,73.9026,168.561,1002.4,0.89,-999.0,yes,yes,no,300234061762070,unknown,unknown,unknown,North
2014-09-07T16:59:31Z,1410109171,2014,17,0,250.708,250.625,73.9026,168.561,1003.0,0.81,-999.0,yes,yes,no,300234061762070,unknown,unknown,unknown,North
2014-09-07T18:00:00Z,1410112800,2014,18,0,250.75,250.75,73.8654,168.6774,1003.7,1.0,-999.0,yes,yes,no,300234061762070,unknown,unknown,unknown,North
2014-09-07T19:00:28Z,1410116429,2014,19,0,250.792,250.75,73.8654,168.6774,1004.4,0.91,-999.0,yes,yes,no,300234061762070,unknown,unknown,unknown,North
2014-09-07T19:59:31Z,1410119971,2014,20,0,250.833,250.75,73.8654,168.6774,1005.2,1.04,-999.0,yes,yes,no,300234061762070,unknown,unknown,unknown,North
2014-09-07T21:00:00Z,1410123600,2014,21,0,250.875,250.875,73.8296,168.6734,1006.3,1.25,-999.0,yes,yes,no,300234061762070,unknown,unknown,unknown,North
2014-09-07T22:00:28Z,1410127229,2014,22,0,250.917,250.875,73.8296,168.6734,1007.5,1.45,-999.0,yes,yes,no,300234061762070,unknown,unknown,unknown,North
2014-09-07T22:59:31Z,1410130771,2014,23,0,250.958,250.875,73.8296,168.6734,1008.6,7.24,-999.0,yes,yes,no,300234061762070,unknown,unknown,unknown,North
2014-09-08T00:00:00Z,1410134400,2014,0,0,251.0,251.0,73.8146,168.646,1009.2,6.06,-999.0,yes,yes,no,300234061762070,unknown,unknown,unknown,North
2014-09-08T01:00:28Z,1410138029,2014,1,0,251.042,251.0,73.8146,168.646,1009.9,3.31,-999.0,yes,yes,no,300234061762070,unknown,unknown,unknown,North
2014-09-08T01:59:31Z,1410141571,2014,2,0,251.083,251.0,73.8146,168.646,1010.6,4.94,-999.0,yes,yes,no,300234061762070,unknown,unknown,unknown,North
2014-09-08T03:00:00Z,1410145200,2014,3,0,251.125,251.125,73.8112,168.7054,1011.2,3.51,-999.0,yes,yes,no,300234061762070,unknown,unknown,unknown,North
2014-09-08T04:00:28Z,1410148829,2014,4,0,251.167,251.125,73.8112,168.7054,1011.8,2.59,-999.0,yes,yes,no,300234061762070,unknown,unknown,unknown,North
2014-09-08T04:59:31Z,1410152371,2014,5,0,251.208,251.125,73.8112,168.7054,1012.3,2.1,-999.0,yes,yes,no,300234061762070,unknown,unknown,unknown,North
2014-09-08T06:00:00Z,1410156000,2014,6,0,251.25,251.25,73.7838,168.8066,1013.1,1.52,-999.0,yes,yes,no,300234061762070,unknown,unknown,unknown,North
2014-09-08T07:00:28Z,1410159629,2014,7,0,251.292,251.25,73.7838,168.8066,1014.0,1.03,-999.0,yes,yes,no,300234061762070,unknown,unknown,unknown,North
2014-09-08T07:59:31Z,1410163171,2014,8,0,251.333,251.25,73.7838,168.8066,1014.8,0.37,-999.0,yes,yes,no,300234061762070,unknown,unknown,unknown,North
2014-09-08T09:00:00Z,1410166800,2014,9,0,251.375,251.375,73.748,168.8074,1015.6,-0.25,-999.0,yes,yes,no,300234061762070,unknown,unknown,unknown,North
2014-09-08T10:00:28Z,1410170429,2014,10,0,251.417,251.375,73.748,168.8074,1016.2,-0.18,-999.0,yes,yes,no,300234061762070,unknown,unknown,unknown,North
2014-09-08T10:59:31Z,1410173971,2014,11,0,251.458,251.375,73.748,168.8074,1016.8,-0.25,-999.0,yes,yes,no,300234061762070,unknown,unknown,unknown,North
2014-09-08T12:00:00Z,1410177600,2014,12,0,251.5,251.5,73.7432,168.7592,1017.2,-0.44,-999.0,yes,yes,no,300234061762070,unknown,unknown,unknown,North
2014-09-08T13:00:28Z,1410181229,2014,13,0,251.542,251.5,73.7432,168.7592,1017.9,0.02,-999.0,yes,yes,no,300234061762070,unknown,unknown,unknown,North
2014-09-08T13:59:31Z,1410184771,2014,14,0,251.583,251.5,73.7432,168.7592,1018.3,0.14,-999.0,yes,yes,no,300234061762070,unknown,unknown,unknown,North
2014-09-08T15:00:00Z,1410188400,2014,15,0,251.625,251.625,73.7526,168.816,1018.7,0.03,-999.0,yes,yes,no,300234061762070,unknown,unknown,unknown,North
2014-09-08T16:00:28Z,1410192029,2014,16,0,251.667,251.625,73.7526,168.816,1019.2,0.17,-999.0,yes,yes,no,300234061762070,unknown,unknown,unknown,North
2014-09-08T16:59:31Z,1410195571,2014,17,0,251.708,251.625,73.7526,168.816,1019.7,0.12,-999.0,yes,yes,no,300234061762070,unknown,unknown,unknown,North
2014-09-08T18:00:00Z,1410199200,2014,18,0,251.75,251.75,73.7392,168.932,1020.4,0.13,-999.0,yes,yes,no,300234061762070,unknown,unknown,unknown,North
2014-09-08T19:00:28Z,1410202829,2014,19,0,251.792,251.75,73.7392,168.932,1021.2,0.46,-999.0,yes,yes,no,300234061762070,unknown,unknown,unknown,North
2014-09-08T19:59:31Z,1410206371,2014,20,0,251.833,251.75,73.7392,168.932,1021.8,0.93,-999.0,yes,yes,no,300234061762070,unknown,unknown,unknown,North
2014-09-08T21:00:00Z,1410210000,2014,21,0,251.875,251.875,73.7084,168.9578,1022.3,1.49,-999.0,yes,yes,no,300234061762070,unknown,unknown,unknown,North
2014-09-08T22:00:28Z,1410213629,2014,22,0,251.917,251.875,73.7084,168.9578,1022.7,2.5,-999.0,yes,yes,no,300234061762070,unknown,unknown,unknown,North
2014-09-08T22:59:31Z,1410217171,2014,23,0,251.958,251.875,73.7084,168.9578,1023.2,3.15,-999.0,yes,yes,no,300234061762070,unknown,unknown,unknown,North
2014-09-09T00:00:00Z,1410220800,2014,0,0,252.0,252.0,73.7044,168.917,1023.4,3.51,-999.0,yes,yes,no,300234061762070,unknown,unknown,unknown,North
2014-09-09T01:00:28Z,1410224429,2014,1,0,252.042,252.0,73.7044,168.917,1023.7,3.91,-999.0,yes,yes,no,300234061762070,unknown,unknown,unknown,North
2014-09-09T01:59:31Z,1410227971,2014,2,0,252.083,252.0,73.7044,168.917,1023.9,4.47,-999.0,yes,yes,no,300234061762070,unknown,unknown,unknown,North
2014-09-09T03:00:00Z,1410231600,2014,3,0,252.125,252.125,73.7226,168.9564,1024.1,3.53,-999.0,yes,yes,no,300234061762070,unknown,unknown,unknown,North
2014-09-09T04:00:28Z,1410235229,2014,4,0,252.167,252.125,73.7226,168.9564,1024.1,2.38,-999.0,yes,yes,no,300234061762070,unknown,unknown,unknown,North
2014-09-09T04:59:31Z,1410238771,2014,5,0,252.208,252.125,73.7226,168.9564,1024.1,2.42,-999.0,yes,yes,no,300234061762070,unknown,unknown,unknown,North
2014-09-09T06:00:00Z,1410242400,2014,6,0,252.25,252.25,73.721,169.0718,1024.2,1.18,-999.0,yes,yes,no,300234061762070,unknown,unknown,unknown,North
2014-09-09T07:00:28Z,1410246029,2014,7,0,252.292,252.25,73.721,169.0718,1024.5,0.63,-999.0,yes,yes,no,300234061762070,unknown,unknown,unknown,North
2014-09-09T07:59:31Z,1410249571,2014,8,0,252.333,252.25,73.721,169.0718,1024.8,0.4,-999.0,yes,yes,no,300234061762070,unknown,unknown,unknown,North
2014-09-09T09:00:00Z,1410253200,2014,9,0,252.375,252.375,73.6996,169.1078,1024.9,0.17,-999.0,yes,yes,no,300234061762070,unknown,unknown,unknown,North
2014-09-09T10:00:28Z,1410256829,2014,10,0,252.417,252.375,73.6996,169.1078,1024.9,0.07,-999.0,yes,yes,no,300234061762070,unknown,unknown,unknown,North
2014-09-09T10:59:31Z,1410260371,2014,11,0,252.458,252.375,73.6996,169.1078,1025.0,-0.04,-999.0,yes,yes,no,300234061762070,unknown,unknown,unknown,North
2014-09-09T12:00:00Z,1410264000,2014,12,0,252.5,252.5,73.7006,169.0726,1024.9,-0.18,-999.0,yes,yes,no,300234061762070,unknown,unknown,unknown,North
2014-09-09T13:00:28Z,1410267629,2014,13,0,252.542,252.5,73.7006,169.0726,1024.6,-0.23,-999.0,yes,yes,no,300234061762070,unknown,unknown,unknown,North
2014-09-09T13:59:31Z,1410271171,2014,14,0,252.583,252.5,73.7006,169.0726,1024.5,-0.22,-999.0,yes,yes,no,300234061762070,unknown,unknown,unknown,North
2014-09-09T15:00:00Z,1410274800,2014,15,0,252.625,252.625,73.724,169.105,1024.5,-0.3,-999.0,yes,yes,no,300234061762070,unknown,unknown,unknown,North
2014-09-09T16:00:28Z,1410278429,2014,16,0,252.667,252.625,73.724,169.105,1024.3,-0.28,-999.0,yes,yes,no,300234061762070,unknown,unknown,unknown,North
2014-09-09T16:59:31Z,1410281971,2014,17,0,252.708,252.625,73.724,169.105,1024.1,-0.24,-999.0,yes,yes,no,300234061762070,unknown,unknown,unknown,North
2014-09-09T18:00:00Z,1410285600,2014,18,0,252.75,252.75,73.7338,169.2136,1023.9,-0.12,-999.0,yes,yes,no,300234061762070,unknown,unknown,unknown,North
2014-09-09T19:00:28Z,1410289229,2014,19,0,252.792,252.75,73.7338,169.2136,1024.0,0.19,-999.0,yes,yes,no,300234061762070,unknown,unknown,unknown,North
2014-09-09T19:59:31Z,1410292771,2014,20,0,252.833,252.75,73.7338,169.2136,1024.0,0.35,-999.0,yes,yes,no,300234061762070,unknown,unknown,unknown,North
2014-09-09T21:00:00Z,1410296400,2014,21,0,252.875,252.875,73.7208,169.2616,1024.0,1.38,-999.0,yes,yes,no,300234061762070,unknown,unknown,unknown,North
2014-09-09T22:00:28Z,1410300029,2014,22,0,252.917,252.875,73.7208,169.2616,1023.7,1.83,-999.0,yes,yes,no,300234061762070,unknown,unknown,unknown,North
2014-09-09T22:59:31Z,1410303571,2014,23,0,252.958,252.875,73.7208,169.2616,1023.6,1.93,-999.0,yes,yes,no,300234061762070,unknown,unknown,unknown,North
2014-09-10T00:00:00Z,1410307200,2014,0,0,253.0,253.0,73.7252,169.22,1023.1,1.63,-999.0,yes,yes,no,300234061762070,unknown,unknown,unknown,North
2014-09-10T01:00:28Z,1410310829,2014,1,0,253.042,253.0,73.7252,169.22,1022.8,1.73,-999.0,yes,yes,no,300234061762070,unknown,unknown,unknown,North
2014-09-10T01:59:31Z,1410314371,2014,2,0,253.083,253.0,73.7252,169.22,1022.5,1.7,-999.0,yes,yes,no,300234061762070,unknown,unknown,unknown,North
2014-09-10T03:00:00Z,1410318000,2014,3,0,253.125,253.125,73.7624,169.2248,1022.3,1.12,-999.0,yes,yes,no,300234061762070,unknown,unknown,unknown,North
2014-09-10T04:00:28Z,1410321629,2014,4,0,253.167,253.125,73.7624,169.2248,1021.9,1.13,-999.0,yes,yes,no,300234061762070,unknown,unknown,unknown,North
2014-09-10T04:59:31Z,1410325171,2014,5,0,253.208,253.125,73.7624,169.2248,1021.9,1.13,-999.0,yes,yes,no,300234061762070,unknown,unknown,unknown,North
2014-09-10T06:00:00Z,1410328800,2014,6,0,253.25,253.25,73.7976,169.328,1021.6,1.29,-999.0,yes,yes,no,300234061762070,unknown,unknown,unknown,North
2014-09-10T07:00:28Z,1410332429,2014,7,0,253.292,253.25,73.7976,169.328,1021.5,1.05,-999.0,yes,yes,no,300234061762070,unknown,unknown,unknown,North
2014-09-10T07:59:31Z,1410335971,2014,8,0,253.333,253.25,73.7976,169.328,1021.5,0.77,-999.0,yes,yes,no,300234061762070,unknown,unknown,unknown,North
2014-09-10T09:00:00Z,1410339600,2014,9,0,253.375,253.375,73.8044,169.409,1021.8,0.71,-999.0,yes,yes,no,300234061762070,unknown,unknown,unknown,North
2014-09-10T10:00:28Z,1410343229,2014,10,0,253.417,253.375,73.8044,169.409,1021.9,0.62,-999.0,yes,yes,no,300234061762070,unknown,unknown,unknown,North
2014-09-10T10:59:31Z,1410346771,2014,11,0,253.458,253.375,73.8044,169.409,1022.1,0.51,-999.0,yes,yes,no,300234061762070,unknown,unknown,unknown,North
2014-09-10T12:00:00Z,1410350400,2014,12,0,253.5,253.5,73.8138,169.3944,1022.2,0.41,-999.0,yes,yes,no,300234061762070,unknown,unknown,unknown,North
2014-09-10T13:59:31Z,1410357571,2014,14,0,253.583,253.5,73.8138,169.3944,1022.1,0.25,-999.0,yes,yes,no,300234061762070,unknown,unknown,unknown,North
2014-09-10T15:00:00Z,1410361200,2014,15,0,253.625,253.625,73.8494,169.3852,1022.3,-0.73,-999.0,yes,yes,no,300234061762070,unknown,unknown,unknown,North
2014-09-10T16:00:28Z,1410364829,2014,16,0,253.667,253.625,73.8494,169.3852,1022.6,-0.32,-999.0,yes,yes,no,300234061762070,unknown,unknown,unknown,North
2014-09-10T16:59:31Z,1410368371,2014,17,0,253.708,253.625,73.8494,169.3852,1022.5,-0.01,-999.0,yes,yes,no,300234061762070,unknown,unknown,unknown,North
2014-09-10T18:00:00Z,1410372000,2014,18,0,253.75,253.75,73.883,169.4626,1022.8,0.21,-999.0,yes,yes,no,300234061762070,unknown,unknown,unknown,North
2014-09-10T19:00:28Z,1410375629,2014,19,0,253.792,253.75,73.883,169.4626,1023.2,0.44,-999.0,yes,yes,no,300234061762070,unknown,unknown,unknown,North
2014-09-10T19:59:31Z,1410379171,2014,20,0,253.833,253.75,73.883,169.4626,1023.5,0.81,-999.0,yes,yes,no,300234061762070,unknown,unknown,unknown,North
2014-09-10T21:00:00Z,1410382800,2014,21,0,253.875,253.875,73.8878,169.544,1023.6,2.06,-999.0,yes,yes,no,300234061762070,unknown,unknown,unknown,North
2014-09-10T22:00:28Z,1410386429,2014,22,0,253.917,253.875,73.8878,169.544,1023.8,2.3,-999.0,yes,yes,no,300234061762070,unknown,unknown,unknown,North
2014-09-10T22:59:31Z,1410389971,2014,23,0,253.958,253.875,73.8878,169.544,1024.0,2.97,-999.0,yes,yes,no,300234061762070,unknown,unknown,unknown,North
2014-09-11T00:00:00Z,1410393600,2014,0,0,254.0,254.0,73.8916,169.542,1024.0,2.83,-999.0,yes,yes,no,300234061762070,unknown,unknown,unknown,North
2014-09-11T01:00:28Z,1410397229,2014,1,0,254.042,254.0,73.8916,169.542,1024.0,2.97,-999.0,yes,yes,no,300234061762070,unknown,unknown,unknown,North
2014-09-11T01:59:31Z,1410400771,2014,2,0,254.083,254.0,73.8916,169.542,1024.0,3.44,-999.0,yes,yes,no,300234061762070,unknown,unknown,unknown,North
2014-09-11T03:00:00Z,1410404400,2014,3,0,254.125,254.125,73.9196,169.536,1023.8,3.1,-999.0,yes,yes,no,300234061762070,unknown,unknown,unknown,North
2014-09-11T04:00:28Z,1410408029,2014,4,0,254.167,254.125,73.9196,169.536,1023.8,2.57,-999.0,yes,yes,no,300234061762070,unknown,unknown,unknown,North
2014-09-11T04:59:31Z,1410411571,2014,5,0,254.208,254.125,73.9196,169.536,1023.6,1.93,-999.0,yes,yes,no,300234061762070,unknown,unknown,unknown,North
2014-09-11T06:00:00Z,1410415200,2014,6,0,254.25,254.25,73.95,169.6104,1023.8,1.38,-999.0,yes,yes,no,300234061762070,unknown,unknown,unknown,North
2014-09-11T07:00:28Z,1410418829,2014,7,0,254.292,254.25,73.95,169.6104,1023.8,0.76,-999.0,yes,yes,no,300234061762070,unknown,unknown,unknown,North
2014-09-11T07:59:31Z,1410422371,2014,8,0,254.333,254.25,73.95,169.6104,1023.9,0.37,-999.0,yes,yes,no,300234061762070,unknown,unknown,unknown,North
2014-09-11T09:00:00Z,1410426000,2014,9,0,254.375,254.375,73.9588,169.6942,1023.9,0.13,-999.0,yes,yes,no,300234061762070,unknown,unknown,unknown,North
2014-09-11T10:00:28Z,1410429629,2014,10,0,254.417,254.375,73.9588,169.6942,1023.9,-0.07,-999.0,yes,yes,no,300234061762070,unknown,unknown,unknown,North
2014-09-11T10:59:31Z,1410433171,2014,11,0,254.458,254.375,73.9588,169.6942,1023.8,-0.26,-999.0,yes,yes,no,300234061762070,unknown,unknown,unknown,North
2014-09-11T12:00:00Z,1410436800,2014,12,0,254.5,254.5,73.9634,169.6964,1023.8,-0.52,-999.0,yes,yes,no,300234061762070,unknown,unknown,unknown,North
2014-09-11T13:00:28Z,1410440429,2014,13,0,254.542,254.5,73.9634,169.6964,1023.7,-0.73,-999.0,yes,yes,no,300234061762070,unknown,unknown,unknown,North
2014-09-11T13:59:31Z,1410443971,2014,14,0,254.583,254.5,73.9634,169.6964,1023.4,-0.93,-999.0,yes,yes,no,300234061762070,unknown,unknown,unknown,North
2014-09-11T15:00:00Z,1410447600,2014,15,0,254.625,254.625,73.9892,169.6798,1023.2,-1.02,-999.0,yes,yes,no,300234061762070,unknown,unknown,unknown,North
2014-09-11T16:00:28Z,1410451229,2014,16,0,254.667,254.625,73.9892,169.6798,1022.9,-1.32,-999.0,yes,yes,no,300234061762070,unknown,unknown,unknown,North
2014-09-11T16:59:31Z,1410454771,2014,17,0,254.708,254.625,73.9892,169.6798,1022.8,-1.57,-999.0,yes,yes,no,300234061762070,unknown,unknown,unknown,North
2014-09-11T18:00:00Z,1410458400,2014,18,0,254.75,254.75,74.0204,169.738,1022.7,-1.56,-999.0,yes,yes,no,300234061762070,unknown,unknown,unknown,North
2014-09-11T19:00:28Z,1410462029,2014,19,0,254.792,254.75,74.0204,169.738,1022.6,-1.29,-999.0,yes,yes,no,300234061762070,unknown,unknown,unknown,North
2014-09-11T19:59:31Z,1410465571,2014,20,0,254.833,254.75,74.0204,169.738,1022.4,-0.75,-999.0,yes,yes,no,300234061762070,unknown,unknown,unknown,North
2014-09-11T21:00:00Z,1410469200,2014,21,0,254.875,254.875,74.0292,169.8184,1022.4,-0.61,-999.0,yes,yes,no,300234061762070,unknown,unknown,unknown,North
2014-09-11T22:00:28Z,1410472829,2014,22,0,254.917,254.875,74.0292,169.8184,1022.3,0.01,-999.0,yes,yes,no,300234061762070,unknown,unknown,unknown,North
2014-09-11T22:59:31Z,1410476371,2014,23,0,254.958,254.875,74.0292,169.8184,1022.3,0.27,-999.0,yes,yes,no,300234061762070,unknown,unknown,unknown,North
2014-09-12T00:00:00Z,1410480000,2014,0,0,255.0,255.0,74.0272,169.8224,1022.1,0.78,-999.0,yes,yes,no,300234061762070,unknown,unknown,unknown,North
2014-09-12T01:00:28Z,1410483629,2014,1,0,255.042,255.0,74.0272,169.8224,1021.8,1.27,-999.0,yes,yes,no,300234061762070,unknown,unknown,unknown,North
2014-09-12T01:59:31Z,1410487171,2014,2,0,255.083,255.0,74.0272,169.8224,1021.3,2.2,-999.0,yes,yes,no,300234061762070,unknown,unknown,unknown,North
2014-09-12T03:00:00Z,1410490800,2014,3,0,255.125,255.125,74.0434,169.7892,1020.9,1.79,-999.0,yes,yes,no,300234061762070,unknown,unknown,unknown,North
2014-09-12T04:00:28Z,1410494429,2014,4,0,255.167,255.125,74.0434,169.7892,1020.6,1.19,-999.0,yes,yes,no,300234061762070,unknown,unknown,unknown,North
2014-09-12T04:59:31Z,1410497971,2014,5,0,255.208,255.125,74.0434,169.7892,1020.3,0.9,-999.0,yes,yes,no,300234061762070,unknown,unknown,unknown,North
2014-09-12T06:00:00Z,1410501600,2014,6,0,255.25,255.25,74.0702,169.816,1020.0,0.28,-999.0,yes,yes,no,300234061762070,unknown,unknown,unknown,North
2014-09-12T07:00:28Z,1410505229,2014,7,0,255.292,255.25,74.0702,169.816,1019.8,-0.14,-999.0,yes,yes,no,300234061762070,unknown,unknown,unknown,North
2014-09-12T07:59:31Z,1410508771,2014,8,0,255.333,255.25,74.0702,169.816,1019.7,-0.49,-999.0,yes,yes,no,300234061762070,unknown,unknown,unknown,North
2014-09-12T09:00:00Z,1410512400,2014,9,0,255.375,255.375,74.0794,169.8742,1019.6,-0.77,-999.0,yes,yes,no,300234061762070,unknown,unknown,unknown,North
2014-09-12T10:00:28Z,1410516029,2014,10,0,255.417,255.375,74.0794,169.8742,1019.3,-0.96,-999.0,yes,yes,no,300234061762070,unknown,unknown,unknown,North
2014-09-12T10:59:31Z,1410519571,2014,11,0,255.458,255.375,74.0794,169.8742,1019.0,-0.98,-999.0,yes,yes,no,300234061762070,unknown,unknown,unknown,North
2014-09-12T12:00:00Z,1410523200,2014,12,0,255.5,255.5,74.0738,169.8604,1018.7,-0.98,-999.0,yes,yes,no,300234061762070,unknown,unknown,unknown,North
2014-09-12T13:00:28Z,1410526829,2014,13,0,255.542,255.5,74.0738,169.8604,1018.4,-0.98,-999.0,yes,yes,no,300234061762070,unknown,unknown,unknown,North
2014-09-12T13:59:31Z,1410530371,2014,14,0,255.583,255.5,74.0738,169.8604,1018.2,-0.88,-999.0,yes,yes,no,300234061762070,unknown,unknown,unknown,North
2014-09-12T15:00:00Z,1410534000,2014,15,0,255.625,255.625,74.082,169.7938,1017.9,-0.81,-999.0,yes,yes,no,300234061762070,unknown,unknown,unknown,North
2014-09-12T16:00:28Z,1410537629,2014,16,0,255.667,255.625,74.082,169.7938,1017.5,-0.53,-999.0,yes,yes,no,300234061762070,unknown,unknown,unknown,North
2014-09-12T16:59:31Z,1410541171,2014,17,0,255.708,255.625,74.082,169.7938,1017.1,-0.43,-999.0,yes,yes,no,300234061762070,unknown,unknown,unknown,North
2014-09-12T18:00:00Z,1410544800,2014,18,0,255.75,255.75,74.106,169.7754,1016.9,-0.5,-999.0,yes,yes,no,300234061762070,unknown,unknown,unknown,North
2014-09-12T19:00:28Z,1410548429,2014,19,0,255.792,255.75,74.106,169.7754,1016.9,-0.22,-999.0,yes,yes,no,300234061762070,unknown,unknown,unknown,North
2014-09-12T19:59:31Z,1410551971,2014,20,0,255.833,255.75,74.106,169.7754,1016.9,0.31,-999.0,yes,yes,no,300234061762070,unknown,unknown,unknown,North
2014-09-12T21:00:00Z,1410555600,2014,21,0,255.875,255.875,74.1178,169.8132,1016.9,0.94,-999.0,yes,yes,no,300234061762070,unknown,unknown,unknown,North
2014-09-12T22:00:28Z,1410559229,2014,22,0,255.917,255.875,74.1178,169.8132,1017.0,1.11,-999.0,yes,yes,no,300234061762070,unknown,unknown,unknown,North
2014-09-12T22:59:31Z,1410562771,2014,23,0,255.958,255.875,74.1178,169.8132,1016.8,1.5,-999.0,yes,yes,no,300234061762070,unknown,unknown,unknown,North
2014-09-13T00:00:00Z,1410566400,2014,0,0,256.0,256.0,74.1108,169.8056,1016.5,2.81,-999.0,yes,yes,no,300234061762070,unknown,unknown,unknown,North
2014-09-13T01:00:28Z,1410570029,2014,1,0,256.042,256.0,74.1108,169.8056,1016.6,3.26,-999.0,yes,yes,no,300234061762070,unknown,unknown,unknown,North
2014-09-13T01:59:31Z,1410573571,2014,2,0,256.083,256.0,74.1108,169.8056,1016.4,4.17,-999.0,yes,yes,no,300234061762070,unknown,unknown,unknown,North
2014-09-13T03:00:00Z,1410577200,2014,3,0,256.125,256.125,74.115,169.7328,1016.0,3.62,-999.0,yes,yes,no,300234061762070,unknown,unknown,unknown,North
2014-09-13T04:00:28Z,1410580829,2014,4,0,256.167,256.125,74.115,169.7328,1015.8,2.89,-999.0,yes,yes,no,300234061762070,unknown,unknown,unknown,North
2014-09-13T04:59:31Z,1410584371,2014,5,0,256.208,256.125,74.115,169.7328,1015.6,1.9,-999.0,yes,yes,no,300234061762070,unknown,unknown,unknown,North
2014-09-13T06:00:00Z,1410588000,2014,6,0,256.25,256.25,74.1368,169.7024,1015.4,1.32,-999.0,yes,yes,no,300234061762070,unknown,unknown,unknown,North
2014-09-13T07:00:28Z,1410591629,2014,7,0,256.292,256.25,74.1368,169.7024,1015.6,0.72,-999.0,yes,yes,no,300234061762070,unknown,unknown,unknown,North
2014-09-13T07:59:31Z,1410595171,2014,8,0,256.333,256.25,74.1368,169.7024,1015.6,0.29,-999.0,yes,yes,no,300234061762070,unknown,unknown,unknown,North
2014-09-13T09:00:00Z,1410598800,2014,9,0,256.375,256.375,74.1478,169.7378,1015.7,0.21,-999.0,yes,yes,no,300234061762070,unknown,unknown,unknown,North
2014-09-13T10:00:28Z,1410602429,2014,10,0,256.417,256.375,74.1478,169.7378,1015.7,0.09,-999.0,yes,yes,no,300234061762070,unknown,unknown,unknown,North
2014-09-13T10:59:31Z,1410605971,2014,11,0,256.458,256.375,74.1478,169.7378,1015.6,-0.16,-999.0,yes,yes,no,300234061762070,unknown,unknown,unknown,North
2014-09-13T12:00:00Z,1410609600,2014,12,0,256.5,256.5,74.138,169.7366,1015.5,-0.4,-999.0,yes,yes,no,300234061762070,unknown,unknown,unknown,North
2014-09-13T13:00:28Z,1410613229,2014,13,0,256.542,256.5,74.138,169.7366,1015.2,-0.75,-999.0,yes,yes,no,300234061762070,unknown,unknown,unknown,North
2014-09-13T13:59:31Z,1410616771,2014,14,0,256.583,256.5,74.138,169.7366,1015.1,-0.46,-999.0,yes,yes,no,300234061762070,unknown,unknown,unknown,North
2014-09-13T15:00:00Z,1410620400,2014,15,0,256.625,256.625,74.1376,169.6614,1014.8,-0.4,-999.0,yes,yes,no,300234061762070,unknown,unknown,unknown,North
2014-09-13T16:00:28Z,1410624029,2014,16,0,256.667,256.625,74.1376,169.6614,1014.9,-0.39,-999.0,yes,yes,no,300234061762070,unknown,unknown,unknown,North
2014-09-13T16:59:31Z,1410627571,2014,17,0,256.708,256.625,74.1376,169.6614,1014.8,-0.54,-999.0,yes,yes,no,300234061762070,unknown,unknown,unknown,North
2014-09-13T18:00:00Z,1410631200,2014,18,0,256.75,256.75,74.1578,169.6172,1014.8,-0.38,-999.0,yes,yes,no,300234061762070,unknown,unknown,unknown,North
2014-09-13T19:00:28Z,1410634829,2014,19,0,256.792,256.75,74.1578,169.6172,1015.0,-0.26,-999.0,yes,yes,no,300234061762070,unknown,unknown,unknown,North
2014-09-13T19:59:31Z,1410638371,2014,20,0,256.833,256.75,74.1578,169.6172,1014.9,-0.14,-999.0,yes,yes,no,300234061762070,unknown,unknown,unknown,North
2014-09-13T21:00:00Z,1410642000,2014,21,0,256.875,256.875,74.172,169.6442,1014.8,0.79,-999.0,yes,yes,no,300234061762070,unknown,unknown,unknown,North
2014-09-13T22:00:28Z,1410645629,2014,22,0,256.917,256.875,74.172,169.6442,1014.7,1.44,-999.0,yes,yes,no,300234061762070,unknown,unknown,unknown,North
2014-09-13T22:59:31Z,1410649171,2014,23,0,256.958,256.875,74.172,169.6442,1014.6,2.13,-999.0,yes,yes,no,300234061762070,unknown,unknown,unknown,North
2014-09-14T00:00:00Z,1410652800,2014,0,0,257.0,257.0,74.165,169.6486,1014.5,2.7,-999.0,yes,yes,no,300234061762070,unknown,unknown,unknown,North
2014-09-14T01:00:28Z,1410656429,2014,1,0,257.042,257.0,74.165,169.6486,1014.6,3.57,-999.0,yes,yes,no,300234061762070,unknown,unknown,unknown,North
2014-09-14T01:59:31Z,1410659971,2014,2,0,257.083,257.0,74.165,169.6486,1014.6,3.68,-999.0,yes,yes,no,300234061762070,unknown,unknown,unknown,North
2014-09-14T03:00:00Z,1410663600,2014,3,0,257.125,257.125,74.1636,169.5814,1014.3,4.42,-999.0,yes,yes,no,300234061762070,unknown,unknown,unknown,North
2014-09-14T04:00:28Z,1410667229,2014,4,0,257.167,257.125,74.1636,169.5814,1014.1,4.23,-999.0,yes,yes,no,300234061762070,unknown,unknown,unknown,North
2014-09-14T04:59:31Z,1410670771,2014,5,0,257.208,257.125,74.1636,169.5814,1014.0,2.13,-999.0,yes,yes,no,300234061762070,unknown,unknown,unknown,North
2014-09-14T06:00:00Z,1410674400,2014,6,0,257.25,257.25,74.1798,169.5382,1014.2,1.02,-999.0,yes,yes,no,300234061762070,unknown,unknown,unknown,North
2014-09-14T07:00:28Z,1410678029,2014,7,0,257.292,257.25,74.1798,169.5382,1014.5,0.15,-999.0,yes,yes,no,300234061762070,unknown,unknown,unknown,North